Location: Zagreb
(45.8000°N, 16.0000°E)
Time: 06:56:17
(UTC+01:00)

ISS - Visible Passes

Search period start: 06 March 2015 00:00
Search period end: 16 March 2015 00:00
Orbit: 397 x 408 km, 51.6° (Epoch: 05 March)

Date Brightness Start Highest point End Pass type
(mag) Time Alt. Az. Time Alt. Az. Time Alt. Az.
11 Mar -0.9 05:10:18 10° S 05:12:44 20° SE 05:15:13 10° E visible
12 Mar -0.4 04:18:52 10° SSE 04:19:54 11° SE 04:21:03 10° ESE visible
13 Mar -2.3 05:00:30 15° SSW 05:02:52 41° SE 05:05:56 10° ENE visible
14 Mar -1.5 04:09:45 23° SE 04:09:53 23° SE 04:12:34 10° E visible
15 Mar -3.4 04:51:29 29° WSW 04:52:59 84° SSE 04:56:13 10° ENE visible
